Starlink 32881

operational
NORAD ID: 62997 Int'l Des: 2025-031 Owner: SPXS Country: US Constellation: starlink
LEOCIRCULAR

关于 Starlink 32881

正在加载描述...

实时位置

正在加载3D地球...

即将过境

高度历史

Altitude vs Time

uPlot chart will show altitude changes over time

两行轨道根数

1 62997U 25031S 25258.25003472 .00101440 00000-0 36532-2 0 9990
2 62997 43.0044 53.9236 0001944 264.7724 189.5844 15.27509316 5821
Epoch: Sep 15, 2025 • Age: 14 hours

当前状态

高度 482.4 km
速度 7.63 km/s
星下点 4.94°N, 124.78°E
发射日期 Feb 11, 2025
运行时间 0.5 years
类型 internet

技术详情

分类 Payload
质量 730.00 kg
干质量 700.00 kg
总质量 730.00 kg
长度 0.30 m
直径 4.10 m
跨度 29.00 m
形状 Box + pan
制造商 SPXS
平台类型 Starlink V2M
阶段状态 In Orbit
所有者/国家 SPXS/US

大型星座

Loading constellations...